Location: Unspecified
(0.0000°N, 0.0000°E)
Time: 09:45:02
(UTC+00:00)

CUTE-I - Pass Details

Date: 03 June 2019
Orbit: 810 x 825 km, 98.7° (Epoch: 18 June)

Event Time Altitude Azimuth Distance (km) Brightness Sun altitude
Rises 19:16:58 0° 208° (SSW) 3,348 ? -18.2°
Reaches altitude 10° 19:22:16 10° 253° (WSW) 2,406 ? -19.4°
Maximum altitude 19:22:35 10° 256° (WSW) 2,402 ? -19.4°
Drops below altitude 10° 19:22:54 10° 260° (W) 2,405 ? -19.5°
Sets 19:28:12 0° 305° (NW) 3,327 ? -20.7°
